Location: Pedholt
(56.0260°N, 10.2097°E)
Time: 15:57:20
(UTC+00:00)

Transit 2A Rocket - All Passes

Search period start: 28 July 2021 00:00
Search period end: 07 August 2021 00:00
Orbit: 589 x 913 km, 66.7° (Epoch: 28 July)

Date Brightness Start Highest point End Pass type
(mag) Time Alt. Az. Time Alt. Az. Time Alt. Az.
28 Jul - 00:21:10 10° WNW 00:24:47 18° WSW 00:28:34 10° SSW visible
28 Jul - 13:22:25 10° SE 13:24:43 14° ESE 13:27:07 10° ENE daylight
28 Jul - 15:01:49 10° SSW 15:06:18 69° SE 15:11:14 10° NE daylight
28 Jul - 16:44:52 10° W 16:49:14 38° NNW 16:54:01 10° NE daylight
28 Jul - 18:29:01 10° WNW 18:33:06 25° N 18:37:29 10° NE daylight
28 Jul - 20:12:21 10° NW 20:17:02 34° NNE 20:22:05 10° E visible
28 Jul - 21:54:57 10° NW 22:00:15 85° NE 22:06:02 10° SE visible
28 Jul - 23:37:58 10° WNW 23:42:27 27° WSW 23:47:13 10° S visible
29 Jul - 14:19:29 10° SSW 14:23:47 45° ESE 14:28:28 10° NE daylight
29 Jul - 16:01:52 10° WSW 16:06:23 48° NNW 16:11:19 10° NE daylight
29 Jul - 17:45:57 10° WNW 17:50:03 26° N 17:54:28 10° NE daylight
29 Jul - 19:29:36 10° NW 19:34:04 29° NNE 19:38:51 10° ENE daylight
29 Jul - 21:12:18 10° NW 21:17:31 63° NE 21:23:13 10° ESE visible
29 Jul - 22:55:01 10° NW 23:00:01 39° WSW 23:05:22 10° S visible
30 Jul - 13:37:29 10° S 13:41:23 29° ESE 13:45:33 10° ENE daylight
30 Jul - 15:19:00 10° WSW 15:23:35 66° NW 15:28:37 10° NE daylight
30 Jul - 17:02:50 10° WNW 17:07:02 29° NNW 17:11:34 10° NE daylight
30 Jul - 18:46:47 10° NW 18:51:02 27° N 18:55:38 10° ENE daylight
30 Jul - 20:29:39 10° NW 20:34:44 48° NE 20:40:14 10° ESE visible
30 Jul - 22:12:15 10° NW 22:17:30 56° SW 22:23:11 10° SSE visible
30 Jul - 23:56:27 10° WNW 23:59:11 14° WSW 00:02:00 10° SW visible
31 Jul - 12:55:54 10° SSE 12:59:04 19° ESE 13:02:25 10° ENE daylight
31 Jul - 14:36:19 10° SW 14:40:53 88° SE 14:45:56 10° NE daylight
31 Jul - 16:19:44 10° W 16:24:03 33° NNW 16:28:45 10° NE daylight
31 Jul - 18:03:50 10° NW 18:07:59 25° N 18:12:28 10° ENE daylight
31 Jul - 19:46:59 10° NW 19:51:51 39° NNE 19:57:07 10° E daylight
31 Jul - 21:29:33 10° NW 21:34:54 79° SW 21:40:43 10° SE visible
31 Jul - 23:12:53 10° WNW 23:16:55 21° WSW 23:21:08 10° SSW visible
01 Aug - 12:15:15 10° SE 12:16:52 12° ESE 12:18:32 10° E daylight
01 Aug - 13:53:50 10° SSW 13:58:18 59° SE 14:03:13 10° NE daylight
01 Aug - 15:36:41 10° W 15:41:08 41° NNW 15:46:01 10° NE daylight
01 Aug - 17:20:49 10° WNW 17:24:56 25° N 17:29:23 10° NE daylight
01 Aug - 19:04:16 10° NW 19:08:55 32° NNE 19:13:55 10° E daylight
01 Aug - 20:46:54 10° NW 20:52:14 76° NE 20:58:01 10° SE visible
01 Aug - 22:29:48 10° WNW 22:34:32 31° WSW 22:39:35 10° S visible
02 Aug - 13:11:37 10° S 13:15:49 39° ESE 13:20:24 10° NE daylight
02 Aug - 14:53:43 10° WSW 14:58:17 54° NW 15:03:19 10° NE daylight
02 Aug - 16:37:43 10° WNW 16:41:54 27° N 16:46:24 10° NE daylight
02 Aug - 18:21:30 10° NW 18:25:55 28° NNE 18:30:41 10° ENE daylight
02 Aug - 20:04:16 10° NW 20:09:28 57° NE 20:15:09 10° ESE visible
02 Aug - 21:46:56 10° NW 21:52:05 45° WSW 21:57:36 10° SSE visible
02 Aug - 23:32:52 10° W 23:33:32 10° WSW 23:34:13 10° WSW visible
03 Aug - 12:29:44 10° SSE 12:33:27 25° ESE 12:37:26 10° ENE daylight
03 Aug - 14:10:55 10° SW 14:15:32 75° NW 14:20:38 10° NE daylight
03 Aug - 15:54:36 10° W 15:58:53 30° NNW 16:03:31 10° NE daylight
03 Aug - 17:38:37 10° NW 17:42:54 26° N 17:47:28 10° ENE daylight
03 Aug - 19:21:36 10° NW 19:26:38 45° NNE 19:32:07 10° ESE daylight
03 Aug - 21:04:11 10° NW 21:09:32 64° SW 21:15:18 10° SSE visible
03 Aug - 22:47:59 10° WNW 22:51:20 16° WSW 22:54:49 10° SW visible
04 Aug - 11:48:22 10° SE 11:51:11 16° ESE 11:54:08 10° ENE daylight
04 Aug - 13:28:17 10° SW 13:32:52 77° SE 13:37:55 10° NE daylight
04 Aug - 15:11:31 10° W 15:15:55 36° NNW 15:20:44 10° NE daylight
04 Aug - 16:55:39 10° NW 16:59:50 25° N 17:04:20 10° ENE daylight
04 Aug - 18:38:55 10° NW 18:43:45 36° NNE 18:48:58 10° E daylight
04 Aug - 20:21:30 10° NW 20:26:54 88° SW 20:32:45 10° SE visible
04 Aug - 22:04:39 10° WNW 22:09:01 24° WSW 22:13:38 10° SSW visible
05 Aug - 12:45:54 10° SSW 12:50:19 51° SE 12:55:11 10° NE daylight
05 Aug - 14:28:29 10° WSW 14:33:01 45° NNW 14:38:00 10° NE daylight
05 Aug - 16:12:36 10° WNW 16:16:46 26° N 16:21:16 10° NE daylight
05 Aug - 17:56:11 10° NW 18:00:47 31° NNE 18:05:44 10° E daylight
05 Aug - 19:38:51 10° NW 19:44:12 69° NE 19:50:00 10° SE daylight
05 Aug - 21:21:39 10° NW 21:26:37 35° WSW 21:31:53 10° S visible
06 Aug - 12:03:47 10° S 12:07:52 33° ESE 12:12:19 10° NE daylight
06 Aug - 13:45:35 10° WSW 13:50:12 60° NW 13:55:19 10° NE daylight
06 Aug - 15:29:29 10° WNW 15:33:44 28° NNW 15:38:19 10° NE daylight
06 Aug - 17:13:22 10° NW 17:17:46 28° NNE 17:22:30 10° ENE daylight
06 Aug - 18:56:12 10° NW 19:01:25 52° NE 19:07:04 10° ESE daylight
06 Aug - 20:38:51 10° NW 20:44:07 51° WSW 20:49:47 10° SSE visible
06 Aug - 22:23:29 10° W 22:25:42 12° WSW 22:27:58 10° SW visible
